datenum,alpha,omega,mu1,mu2,sigma1,sigma2
19900119,-1.186258,0.260582,324.603698,346.108199,13.809448,6.067044
19900216,-1.724098,0.153875,308.690925,337.902180,13.698970,6.315958
19900323,-0.983078,0.113259,317.502792,341.706688,18.222644,7.017482
19900420,-2.617158,0.191647,310.575951,340.380881,8.868579,5.803901
19900518,-1.791323,0.101060,336.328170,357.488513,15.480865,6.019764
19900622,-0.875802,0.308981,348.167534,361.503146,13.262726,5.752615
19900720,-1.676716,0.430962,358.331739,366.446512,12.643979,4.573614
19900824,-1.427075,0.178513,269.854677,321.823086,15.314228,9.201064
19900921,-1.336185,0.121979,275.767075,317.307020,19.681812,8.850759
19901019,-3.058401,0.060331,249.877263,315.923591,11.145559,8.702764
19901123,-1.622946,0.178151,293.056095,320.255711,13.029223,6.092691
19901221,-1.171967,0.144481,332.355399,335.418053,30.892964,7.162512
19910118,-1.862805,0.039398,258.765662,336.715836,0.493397,9.672899
19910215,-1.676576,0.010504,249.384583,369.554596,0.542420,8.378042
19910322,-0.352896,0.827793,369.638534,369.545550,10.870125,2.360435
19910419,-1.365062,0.876161,386.009347,380.455471,10.350556,2.168965
19910524,-1.079288,0.002848,158.110138,379.109268,3.828916,7.654063
19910621,-1.062821,0.140158,360.739253,381.197184,12.547001,6.363987
19910719,-0.894323,0.269392,383.488434,387.259572,15.661465,6.735261
19910823,-1.413373,0.053319,362.854363,396.753635,4.594541,6.900539
19910920,-1.349913,0.048153,347.278030,390.710628,1.704064,6.911615
19911018,-1.007783,0.737942,396.267343,393.963459,12.007714,2.731988
19911122,-2.184609,0.328554,360.054509,383.094600,12.611035,7.450914
19911220,-1.610846,0.032605,324.045982,389.828231,0.731474,7.393378
19920124,-1.433087,0.149566,399.547807,418.708616,14.166418,7.663625
19920221,-0.847964,0.077831,380.012126,414.951864,11.386868,7.197892
19920320,-2.616218,0.392781,400.180793,416.391478,10.262900,4.480162
19920416,-2.312344,0.109328,396.812561,417.675205,17.559788,7.060409
19920522,-1.117757,0.088806,388.297236,416.943783,4.489458,5.999275
19920619,-1.189037,0.589284,401.573927,408.490302,11.061664,3.409443
19920724,-1.621185,0.016663,337.188465,412.898186,0.633232,6.630677
19920821,-1.442534,0.155275,392.717777,418.525653,10.285383,5.492130
19920918,-1.377223,0.345489,425.066228,423.907784,14.475904,6.070045
19921023,-1.078944,0.407848,403.999128,421.555258,10.263130,5.878476
19921120,-1.208061,0.286127,429.329740,427.995281,17.161317,4.983858
19921218,-1.820841,0.048385,415.513535,442.625009,0.634060,6.465609
19930122,-0.726455,0.622812,431.812097,441.635589,6.173022,0.984713
19930219,-0.202625,0.091953,410.398961,437.833298,18.590155,6.139362
19930319,-0.202625,0.091953,410.398961,437.833298,18.590155,6.139362
19930423,-0.929402,0.424695,425.628445,444.212650,7.158389,3.260929
19930521,-0.720351,0.026963,374.282729,448.230186,0.746707,6.815578
19930618,1.373455,0.151671,425.835613,449.740216,2.144894,5.424721
19930723,-1.670655,0.085518,418.867836,449.119202,9.755196,4.848540
19930820,-1.343821,0.780077,454.613058,476.362679,4.506535,24.940440
19930917,-1.467895,0.065905,417.077037,462.026933,4.503901,6.148398
19931022,-0.459107,0.106426,438.349735,466.599103,0.774885,4.519306
19931119,-2.108243,0.247922,464.053197,463.665418,24.051933,6.076404
19931223,-0.266090,0.277110,456.416851,472.290271,5.861014,2.418882
19940121,-2.219759,0.091974,448.470129,476.553722,3.422838,5.500211
19940218,-0.630980,0.128498,439.322696,473.063972,12.236588,6.399865
19940318,-3.823488,0.058967,422.069203,472.581648,0.774885,6.796344
19940422,-1.485371,0.117471,418.886398,451.663781,11.390677,6.173919
19940520,-1.613379,0.024208,398.040686,456.521386,12.290346,6.323076
19940617,0.427236,0.110042,440.105938,461.762690,1.379836,5.068051
19940722,-1.900368,0.110192,429.106014,456.170878,0.774885,4.777486
19940819,-1.833958,0.137697,439.426683,467.036586,7.030380,4.125528
19940923,-0.100384,0.349598,449.704805,467.369559,10.080862,5.163778
19941021,-1.741689,0.218015,444.929432,471.147035,12.256570,6.196536
19941118,-0.561681,0.002438,122.869760,464.936206,64.625282,9.805981
19941223,0.328674,0.738589,459.977593,468.092731,7.211450,0.774885
19950120,-0.765090,0.226190,452.332609,469.486836,8.838846,4.054469
19950217,0.889291,0.035731,445.209471,485.800512,0.774885,5.432366
19950324,-0.367743,0.324910,503.157165,504.539904,12.271469,5.513141
19950421,-2.080124,0.195388,491.875418,512.457538,9.869947,4.511635
19950519,-1.753291,0.750465,521.591338,519.695876,11.917991,0.845329
19950623,-0.366353,0.022296,508.973965,553.441179,0.845329,7.752617
19950721,-2.609160,0.498323,552.324469,556.888159,13.016983,6.797597
19950818,-0.668012,0.025362,508.856345,563.322610,0.845329,8.471981
19950922,-0.304663,0.163082,580.147598,586.378438,22.211154,7.305099
19951020,-2.351245,0.692797,586.652122,593.904836,13.596738,0.880551
19951117,-1.985833,0.291476,582.286121,609.065472,10.743811,6.291316
19951222,0.045527,0.105540,589.529688,618.479982,12.736360,7.613074
19960119,-1.844779,0.210483,595.703245,617.982259,14.099349,8.249426
19960216,-0.449248,0.233712,630.480844,656.817273,18.168213,10.888309
19960322,-1.002021,0.087439,597.958242,658.459477,19.212495,12.634802
19960419,-2.935798,0.176703,618.837653,651.221094,20.410233,9.954402
19960524,-1.085508,0.207508,656.219391,687.408955,21.477328,10.523869
19960621,-0.431361,0.120482,636.479860,674.748982,23.342403,12.454707
19960719,-1.494970,0.201686,609.685147,648.066358,19.091173,11.411315
19960823,-1.261931,0.214105,647.066563,675.421225,18.758376,9.380945
19960920,-2.306381,0.278966,670.998833,695.451616,21.031211,10.466760
19961018,-0.719352,0.197073,690.201125,719.513396,22.193057,11.159599
19961122,-0.916195,0.219766,730.460515,757.838509,23.087707,11.842172
19961220,0.127332,0.171506,723.066004,759.956994,32.771286,15.504130
19970124,-6.548821,0.163120,720.023092,777.146135,21.102032,16.873908
19970221,-0.941552,0.139949,754.092621,813.310669,32.132569,19.068205
19970321,-0.850248,0.315797,759.873594,800.136968,25.727465,17.497424
19970418,-2.666872,0.478604,757.485907,778.308735,26.588040,14.090935
19970523,-3.208356,0.259950,825.195460,856.920312,23.692843,20.905211
19970620,-4.292896,0.376592,886.903105,906.863488,32.713295,22.007036
19970718,-6.656882,0.939298,910.430117,954.158439,31.023933,1.380913
19970822,-2.047687,0.158132,865.407281,938.654453,42.899059,27.707428
19970919,-1.279329,0.045115,797.748905,962.081738,16.139995,25.821142
19971024,-5.730720,0.302577,898.054365,959.380764,35.870494,25.029650
19971121,1.000439,0.240655,909.254608,989.150104,52.568174,20.339530
19971219,-1.240573,0.127580,833.571367,968.622912,62.144071,26.311314
19980123,-0.917765,0.185246,900.351434,976.592682,47.162415,21.742667
19980220,-1.602558,0.096331,982.549695,1.045e+03,55.859720,23.542573
19980320,-1.085576,0.135900,1.051e+03,1.113e+03,56.261073,21.920223
19980417,-2.485926,0.168034,1.059e+03,1.139e+03,49.552242,23.209777
19980522,-1.282214,0.187950,1.054e+03,1.129e+03,42.625333,19.818555
19980619,-1.457601,0.138272,1.021e+03,1.119e+03,59.891581,24.686387
19980724,-2.077178,0.165971,1.070e+03,1.160e+03,59.431658,26.092425
19980821,0.770111,0.187984,981.819648,1.113e+03,75.293824,29.936673
19980918,-0.668557,0.257015,917.315889,1.062e+03,73.801910,30.796141
19981023,-4.795464,0.264003,990.927691,1.100e+03,64.841015,26.409522
19981120,-0.887582,0.103595,1.064e+03,1.180e+03,63.825907,24.472199
19981218,-3.428472,0.172450,1.103e+03,1.209e+03,63.528863,28.032213
19990122,-1.596888,0.327498,1.165e+03,1.262e+03,75.434396,33.556185
19990219,-0.225426,0.325482,1.172e+03,1.280e+03,61.066610,32.319886
19990319,-3.280648,0.272040,1.228e+03,1.330e+03,56.895764,30.502126
19990423,-1.448730,0.247637,1.301e+03,1.381e+03,62.440504,31.950541
19990521,-0.831365,0.255345,1.260e+03,1.361e+03,61.799459,29.232041
19990618,-1.226932,0.209110,1.283e+03,1.365e+03,62.079330,29.602868
19990723,-4.378627,0.224447,1.289e+03,1.379e+03,62.812055,32.360171
19990820,-2.385154,0.240445,1.269e+03,1.363e+03,57.824899,28.532665
19990917,0.273602,0.263196,1.279e+03,1.366e+03,61.076583,29.536140
19991022,-3.963500,0.195945,1.221e+03,1.324e+03,53.826502,26.782151
19991119,-0.765753,0.130964,1.342e+03,1.441e+03,61.064857,27.012064
19991223,3.297728,0.099113,1.343e+03,1.484e+03,70.467936,32.899939
20000121,-0.122600,0.198839,1.369e+03,1.469e+03,58.424639,28.904829
20000218,1.074972,0.270365,1.287e+03,1.379e+03,65.991796,37.907313
20000323,-3.461934,0.425450,1.502e+03,1.555e+03,65.279916,31.297268
20000420,-0.322595,0.145416,1.320e+03,1.463e+03,77.780230,40.567967
20000519,0.696088,0.352464,1.343e+03,1.454e+03,57.951625,30.605292
20000623,0.852884,0.062998,1.310e+03,1.460e+03,68.383635,39.873264
20000721,-5.476909,0.319060,1.433e+03,1.507e+03,46.289824,31.426870
20000818,0.618775,0.344489,1.456e+03,1.524e+03,41.162782,28.056155
20000922,-1.567021,0.390213,1.421e+03,1.480e+03,59.452548,28.481294
20001020,0.684165,0.235502,1.332e+03,1.429e+03,68.184652,34.965309
20001117,-4.188395,0.163102,1.254e+03,1.394e+03,56.795082,36.426016
20001222,3.838635,0.250472,1.245e+03,1.341e+03,66.697429,40.045447
20010119,-5.417342,0.366744,1.301e+03,1.368e+03,53.914643,33.782984
20010216,-2.562592,0.271302,1.239e+03,1.330e+03,47.903269,29.192256
20010323,3.123034,0.369490,1.090e+03,1.181e+03,56.132339,36.333373
20010420,-0.783828,0.349636,1.212e+03,1.267e+03,59.901353,34.347831
20010518,-0.824391,0.167319,1.228e+03,1.309e+03,53.013355,31.995268
20010622,0.003217,0.156226,1.166e+03,1.241e+03,48.838094,28.739465
20010720,-3.045675,0.213953,1.152e+03,1.228e+03,53.033875,29.954191
20010824,-1.245462,0.199641,1.124e+03,1.203e+03,42.527260,24.675221
20010921,3.126180,0.246531,872.150182,1.004e+03,74.692769,41.913756
20011019,-4.299479,0.167966,958.170438,1.094e+03,73.231102,36.020159
20011123,1.121132,0.124764,1.066e+03,1.166e+03,57.663128,28.912201
20011221,1.472827,0.070379,1.029e+03,1.158e+03,64.642254,28.189673
20020118,-0.365559,0.155837,1.044e+03,1.145e+03,50.713110,25.976369
20020215,-1.285026,0.128010,1.011e+03,1.119e+03,52.774399,25.839476
20020322,-2.288729,0.178151,1.097e+03,1.160e+03,38.085400,23.982662
20020419,-0.905284,0.127725,1.056e+03,1.136e+03,42.466485,22.694319
20020524,-3.373458,0.202387,1.029e+03,1.096e+03,36.697495,22.739407
20020621,1.191103,0.151493,900.773988,1.008e+03,52.105108,30.561685
20020719,-5.352704,0.272169,767.158403,871.957253,51.375705,34.840280
20020823,-1.279817,0.144892,849.117835,956.763774,55.311040,30.778392
20020920,-4.279628,0.272077,759.051027,873.756806,55.425922,32.003586
20021018,-2.402370,0.288005,818.602401,909.754415,51.946355,31.792049
20021122,-2.926847,0.147154,857.187076,940.917469,42.120334,24.826165
20021220,0.527081,0.244817,837.059520,917.282097,42.644768,24.426316
20030124,-1.616843,0.288814,802.755966,884.385424,46.344936,27.818410
20030221,-2.023945,0.243669,780.349408,868.523913,41.091367,28.249226
20030320,-0.848095,0.243601,818.177560,894.590766,47.364563,32.597363
20030417,-2.883446,0.294137,856.341208,906.652065,33.664822,22.687979
20030523,-1.709337,0.230789,889.168896,945.533779,32.167889,19.152209
20030620,-4.511806,0.245544,954.995099,1.004e+03,35.956931,21.335376
20030718,-3.284338,0.136626,939.450604,999.182350,36.790774,23.652520
20030822,-1.191748,0.236222,954.198421,1.005e+03,34.645035,19.646379
20030919,-2.881741,0.117174,976.870768,1.042e+03,37.818921,21.856560
20031024,0.646556,0.132869,972.066451,1.040e+03,36.973844,20.588637
20031121,0.143475,0.110931,959.662550,1.046e+03,43.849882,21.124871
20031219,-2.917066,0.121742,1.037e+03,1.094e+03,46.109563,18.756820
20040123,-2.117726,0.088717,1.080e+03,1.146e+03,39.774180,19.651667
20040220,-1.398414,0.115556,1.084e+03,1.152e+03,41.663541,20.395929
20040319,-2.350176,0.131980,1.038e+03,1.120e+03,45.622640,23.342822
20040423,-2.028597,0.200855,1.099e+03,1.150e+03,31.048295,16.627699
20040521,-1.846802,0.264990,1.044e+03,1.110e+03,35.144157,19.508707
20040618,-2.414790,0.125816,1.075e+03,1.143e+03,38.527508,18.212922
20040723,-1.967037,0.145642,1.025e+03,1.096e+03,36.263317,18.734347
20040820,-1.087780,0.177557,1.048e+03,1.110e+03,33.967440,18.039665
20040917,-1.501940,0.161355,1.082e+03,1.138e+03,31.331841,15.938617
20041022,-2.252075,0.199484,1.053e+03,1.106e+03,32.018993,18.414969
20041119,-0.124472,0.113319,1.130e+03,1.178e+03,33.176062,19.583844
20041223,-2.267344,0.093459,1.168e+03,1.215e+03,28.588846,17.283697
20050121,-2.203142,0.136737,1.121e+03,1.176e+03,34.138894,19.216515
20050218,-1.886939,0.113171,1.156e+03,1.208e+03,29.068902,14.395656
20050318,-4.074649,0.102653,1.135e+03,1.195e+03,33.701237,18.062701
20050422,0.794255,0.139306,1.096e+03,1.166e+03,37.752953,19.048995
20050520,-2.056135,0.107384,1.126e+03,1.198e+03,37.427473,15.381911
20050617,-3.635477,0.110719,1.169e+03,1.223e+03,31.244294,15.330364
20050722,-1.726905,0.076156,1.184e+03,1.240e+03,32.598937,14.887557
20050819,0.495026,0.098564,1.155e+03,1.232e+03,40.371172,16.343338
20050923,-1.655274,0.180659,1.170e+03,1.228e+03,31.981985,15.448084
20051021,-1.634223,0.164158,1.122e+03,1.194e+03,39.178262,19.581939
20051118,-2.209950,0.103965,1.198e+03,1.257e+03,32.278246,14.882000
20051223,-1.524125,0.161767,1.236e+03,1.279e+03,25.531066,14.715014
20060120,-3.862000,0.109548,1.197e+03,1.271e+03,41.972244,20.368571
20060217,-3.349900,0.058320,1.210e+03,1.294e+03,44.740519,17.297794
20060324,-1.251683,0.065155,1.244e+03,1.312e+03,38.455180,17.177733
20060421,-3.146711,0.075988,1.250e+03,1.319e+03,41.882995,17.424236
20060519,-1.257299,0.122030,1.187e+03,1.284e+03,51.941063,20.272078
20060623,-0.829025,0.179677,1.184e+03,1.264e+03,41.997484,17.955862
20060721,-4.317909,0.236365,1.184e+03,1.260e+03,42.750934,19.730375
20060818,-0.824295,0.094175,1.248e+03,1.314e+03,37.482480,16.534738
20060922,-1.196074,0.229248,1.283e+03,1.331e+03,36.430504,16.472157
20061020,-3.088287,0.158064,1.333e+03,1.379e+03,31.960453,15.637282
20061117,-2.860557,0.055739,1.355e+03,1.408e+03,41.731138,18.388306
20061222,-3.088685,0.037221,1.325e+03,1.417e+03,55.054954,21.072774
20070119,-3.438952,0.053109,1.362e+03,1.438e+03,44.923869,19.140971
20070216,-2.908600,0.054724,1.374e+03,1.464e+03,32.113544,13.924909
20070323,-2.121283,0.125212,1.376e+03,1.450e+03,49.820586,14.833658
20070420,-1.321041,0.046527,1.392e+03,1.495e+03,61.484505,19.079685
20070518,-1.055829,0.071429,1.365e+03,1.541e+03,28.299331,17.684352
20070622,2.721570,0.291268,1.465e+03,1.533e+03,49.994088,21.893589
20070720,-1.001460,0.228065,1.465e+03,1.563e+03,52.572940,23.619600
20070824,-2.281747,0.425725,1.429e+03,1.526e+03,59.018048,12.458794
20070921,-5.333794,0.221499,1.433e+03,1.554e+03,56.300021,23.120706
20071019,-6.051502,0.350494,1.431e+03,1.539e+03,62.311403,28.765854
20071123,-4.443629,0.639990,1.395e+03,1.526e+03,56.419431,13.696458
20071221,0.690554,0.382521,1.436e+03,1.526e+03,45.883963,21.299776
20080118,-6.156386,0.410989,1.255e+03,1.371e+03,54.215702,35.133801
20080221,0.482142,0.309599,1.267e+03,1.383e+03,54.952614,36.209915
20080320,-7.571556,0.463388,1.272e+03,1.371e+03,60.528548,28.714343
20080418,-7.448066,0.323465,1.333e+03,1.412e+03,50.870006,27.076361
20080523,-4.662038,0.069423,1.253e+03,1.383e+03,54.064799,36.267740
20080620,-2.581551,0.428008,1.270e+03,1.354e+03,51.086637,25.749042
20080718,-3.121969,0.370304,1.199e+03,1.297e+03,49.511828,26.313052
20080822,-2.259731,0.442821,1.254e+03,1.323e+03,39.425300,22.872227
20080919,-13.278451,0.315985,1.167e+03,1.283e+03,72.296897,39.772747
20081024,-10.920251,0.482608,760.846835,968.979116,99.470644,51.360377
20081121,-9.492019,0.499791,705.904365,876.770387,79.262920,54.239720
20081219,-5.533777,0.412611,825.760056,923.447676,63.157922,38.928605
20090123,-7.328387,0.288812,734.306088,862.163745,62.899117,33.688963
20090220,-0.392864,0.302734,692.988777,803.830502,63.704999,37.455937
20090320,-2.266802,0.282852,697.266249,794.314695,60.055631,36.467239
20090417,-1.469627,0.195626,805.699379,884.345306,54.520883,35.826212
20090522,-2.434865,0.177767,799.844515,903.578077,56.294444,31.123747
20090619,-2.370378,0.170548,846.473888,934.663857,51.233905,26.583352
20090724,0.538327,0.255021,941.616714,993.327727,39.773792,26.513336
20090821,-1.107637,0.072060,909.644932,1.034e+03,63.623394,30.349742
20090918,-4.270882,0.137889,991.574035,1.076e+03,51.858511,29.610611
20091023,-1.677805,0.167716,1.011e+03,1.092e+03,47.381586,26.539411
20091120,-1.282748,0.105334,998.768482,1.101e+03,55.155895,25.941563
20091218,-1.510620,0.133171,1.013e+03,1.115e+03,51.364551,23.275423
20100122,0.222345,0.164775,988.939822,1.113e+03,63.020105,26.298446
20100219,-3.051994,0.117713,1.023e+03,1.118e+03,50.450026,22.878100
20100319,-0.319140,0.113647,1.091e+03,1.169e+03,44.782489,21.156833
20100423,-3.390525,0.076843,1.123e+03,1.222e+03,52.945102,21.146547
20100521,-3.077694,0.186853,937.033783,1.120e+03,85.342034,32.892186
20100618,-4.048839,0.176982,1.022e+03,1.134e+03,52.123286,22.919230
20100723,-0.566316,0.252022,1.038e+03,1.124e+03,46.773470,23.913180
20100820,-1.263135,0.360006,1.023e+03,1.097e+03,47.406607,22.390158
20100917,-1.916007,0.197557,1.054e+03,1.142e+03,48.907935,22.496060
20101022,-0.785865,0.249001,1.131e+03,1.200e+03,40.583361,22.100758
20101119,-1.351478,0.161172,1.129e+03,1.212e+03,45.161653,21.118949
20101223,-0.855315,0.127883,1.182e+03,1.267e+03,47.570180,21.038204
20110121,-1.863904,0.075057,1.166e+03,1.292e+03,66.106084,23.539791
20110218,-0.943955,0.063126,1.222e+03,1.351e+03,68.047621,20.458797
20110318,-1.013698,0.222648,1.188e+03,1.305e+03,62.620113,24.108522
20110421,-5.173760,0.131930,1.260e+03,1.344e+03,45.406928,18.594137
20110520,-4.906331,0.124827,1.237e+03,1.342e+03,54.785506,20.881101
20110617,-1.675539,0.218536,1.189e+03,1.293e+03,54.768278,23.593491
20110722,-2.590012,0.195739,1.277e+03,1.359e+03,48.157884,22.894091
20110819,0.185875,0.266502,998.710118,1.170e+03,86.702424,37.678957
20110923,-1.292427,0.351283,1.042e+03,1.187e+03,80.069808,38.231091
20111021,-1.499300,0.233780,1.137e+03,1.269e+03,74.000469,33.216855
20111118,-2.231335,0.322884,1.132e+03,1.253e+03,67.219776,32.721820
20111223,-1.932433,0.232681,1.195e+03,1.285e+03,48.747773,24.432515
20120120,-2.525526,0.135071,1.234e+03,1.326e+03,55.398894,22.664746
20120217,-1.743625,0.112906,1.271e+03,1.372e+03,58.302146,23.155891
20120323,1.007251,0.149591,1.329e+03,1.411e+03,45.584497,20.038914
20120420,-1.855508,0.227229,1.311e+03,1.397e+03,46.778302,21.107104
